Location: Ferma
(41.9500°N, 44.5167°E)
Time: 18:38:05
(UTC+00:00)

CZ-2C R/B - Pass Details

Date: 04 June 2022
Orbit: 381 x 549 km, 35.0° (Epoch: 28 June)

Event Time Altitude Azimuth Distance (km) Brightness Sun altitude
Exits shadow 00:25:26 16° 221° (SW) 1,132 2.3 -10.1°
Maximum altitude 00:27:09 23° 177° (S) 878 2.0 -9.8°
Drops below altitude 10° 00:29:50 10° 122° (ESE) 1,455 3.7 -9.5°
Sets 00:32:15 0° 108° (ESE) 2,345 5.0 -9.1°
